Regional Weather Roundup
Issued by NWS Little Rock, AR

Home | Current Version | Previous Version | Graphics & Text | Print | Product List | Glossary On
Versions: 1 2 3 4 5 6 7 8 9 10 11 12 13 14 15 16 17 18 19 20 21 22 23 24 25 26 27
000
ASUS44 KLZK 232005
RWRLZK

WEATHER ROUNDUP FOR ARKANSAS
NATIONAL WEATHER SERVICE LITTLE ROCK AR
300 PM CDT THU OCT 23 2014

NOTE: "FAIR" INDICATES FEW OR NO CLOUDS BELOW 12,000 FEET WITH NO
SIGNIFICANT WEATHER AND/OR OBSTRUCTIONS TO VISIBILITY.

ARZ001-003-010-029-232100-
NORTHWEST ARKANSAS

CITY           SKY/WX    TMP DP  RH WIND       PRES   REMARKS
FAYETTEVILLE   LGT RAIN  60  54  80 CALM      30.15F
FORT SMITH     CLOUDY    67  49  52 NE3       30.13F
HARRISON       PTSUNNY   62  52  69 E5        30.14F
BENTONVILLE    CLOUDY    55  52  88 S3        30.14F
ROGERS         CLOUDY    57  52  83 S7        30.15F
SILOAM SPGS    CLOUDY    57  50  77 SE3       30.15F
HIGHFILL       CLOUDY    57  32  38 S6        30.14F
SPRINGDALE     PTSUNNY   59  54  82 CALM      30.16F
$$

ARZ004-005-016-232100-
NORTH CENTRAL ARKANSAS

CITY           SKY/WX    TMP DP  RH WIND       PRES   REMARKS
BATESVILLE     CLOUDY    59  46  63 CALM      30.16F
FLIPPIN        CLOUDY    61  45  55 CALM      30.15F
MTN HOME       CLOUDY    60  47  61 S3        30.15S
$$

ARZ040-041-232100-
WEST CENTRAL ARKANSAS

CITY           SKY/WX    TMP DP  RH WIND       PRES   REMARKS
MENA           MOSUNNY   70  52  52 CALM      30.14F
MOUNT IDA      PTSUNNY   66  48  52 CALM      30.12F
$$

ARZ009-017-025-026-028-232100-
NORTHEAST ARKANSAS

CITY           SKY/WX    TMP DP  RH WIND       PRES   REMARKS
CORNING        FAIR      57  46  67 CALM      30.17F
JONESBORO      CLOUDY    60  45  57 N5        30.15F
NEWPORT        CLOUDY    59  46  61 W7        30.18F
WALNUT RIDGE   CLOUDY    57  43  58 SW7       30.17R
BLYTHEVILLE    CLOUDY    63  43  48 N5        30.15F
NW BLYTHEVILLE CLOUDY    63  46  55 N5        30.14
$$

ARZ022-023-033-042-044-232100-
CENTRAL ARKANSAS

CITY           SKY/WX    TMP DP  RH WIND       PRES   REMARKS
LITTLE ROCK    CLOUDY    66  45  46 CALM      30.16F
N LITTLE ROCK  PTSUNNY   62  49  61 NW2       30.16F
JACKSONVILLE   CLOUDY    63  46  53 W2        30.15F
SEARCY         CLOUDY    63  45  51 N5        30.17F
HOT SPRINGS    MOSUNNY   65  47  52 VRB3      30.15F
RUSSELLVILLE   PTSUNNY   66  45  46 N3        30.14F
$$

ARZ036-232100-
EAST ARKANSAS

CITY           SKY/WX    TMP DP  RH WIND       PRES   REMARKS
WEST MEMPHIS   CLOUDY    62  45  53 NW6       30.13F
$$

ARZ050-053-066-070-073-232100-
SOUTHWEST ARKANSAS

CITY           SKY/WX    TMP DP  RH WIND       PRES   REMARKS
ARKADELPHIA    FAIR      68  50  52 VRB3      30.15F
CAMDEN         PTSUNNY   68  46  45 N5        30.15F
TEXARKANA      SUNNY     68  46  45 CALM      30.14F
EL DORADO      PTSUNNY   64  48  56 VRB5      30.14F
DE QUEEN       MOSUNNY   68  52  56 SW5       30.12F
$$

ARZ056-057-069-232100-
SOUTHEAST ARKANSAS

CITY           SKY/WX    TMP DP  RH WIND       PRES   REMARKS
PINE BLUFF     CLOUDY    62  44  51 N6        30.15F
STUTTGART      CLOUDY    63  45  51 N6        30.16S
MONTICELLO     CLOUDY    61  48  62 SW3       30.15R

$$





USA.gov is the U.S. government's official web portal to all federal, state and local government web resources and services.